Location: Danville Conservation Area
(38.8674°N, 91.5143°W)
Time: 00:54:54
(UTC-06:00)

X-37B - Pass Details

Date: 06 December 2021
Orbit: 331 x 339 km, 45.0° (Epoch: 27 January)

Event Time Altitude Azimuth Distance (km) Brightness Sun altitude
Rises 18:30:14 0° 247° (WSW) 2,090 5.8 -20.1°
Reaches altitude 10° 18:32:14 10° 249° (WSW) 1,256 4.3 -20.5°
Enters shadow 18:34:18 44° 260° (W) 470 1.4 -20.9°
